TimeCDT,TemperatureF,Dew PointF,Humidity,Sea Level PressureIn,VisibilityMPH,Wind Direction,Wind SpeedMPH,Gust SpeedMPH,PrecipitationIn,Events,Conditions,WindDirDegrees,DateUTC
12:15 AM,26.6,17.6,69,29.99,10.0,Calm,Calm,-,N/A,,Overcast,0,2012-10-08 05:15:00
12:35 AM,26.6,17.6,69,29.98,10.0,SSE,3.5,-,N/A,,Overcast,150,2012-10-08 05:35:00
12:55 AM,24.8,17.6,74,29.98,10.0,SSE,3.5,-,N/A,,Mostly Cloudy,150,2012-10-08 05:55:00
1:15 AM,24.8,17.6,74,29.98,10.0,Calm,Calm,-,N/A,,Overcast,0,2012-10-08 06:15:00
1:35 AM,26.6,19.4,74,29.98,10.0,Calm,Calm,-,N/A,,Scattered Clouds,0,2012-10-08 06:35:00
1:55 AM,24.8,19.4,80,29.97,10.0,Calm,Calm,-,N/A,,Clear,0,2012-10-08 06:55:00
2:15 AM,24.8,19.4,80,29.97,10.0,Calm,Calm,-,N/A,,Clear,0,2012-10-08 07:15:00
2:35 AM,23.0,17.6,80,29.96,10.0,Calm,Calm,-,N/A,,Clear,0,2012-10-08 07:35:00
2:55 AM,23.0,19.4,86,29.95,10.0,Calm,Calm,-,N/A,,Clear,0,2012-10-08 07:55:00
3:15 AM,24.8,19.4,80,29.95,10.0,Calm,Calm,-,N/A,,Clear,0,2012-10-08 08:15:00
3:35 AM,23.0,19.4,86,29.94,10.0,SSE,3.5,-,N/A,,Clear,150,2012-10-08 08:35:00
3:55 AM,23.0,19.4,86,29.93,10.0,SSE,3.5,-,N/A,,Clear,150,2012-10-08 08:55:00
4:15 AM,23.0,17.6,80,29.93,10.0,SE,3.5,-,N/A,,Clear,140,2012-10-08 09:15:00
4:35 AM,23.0,17.6,80,29.93,10.0,SSE,3.5,-,N/A,,Clear,160,2012-10-08 09:35:00
4:55 AM,26.6,19.4,74,29.92,10.0,South,3.5,-,N/A,,Clear,170,2012-10-08 09:55:00
5:15 AM,30.2,21.2,69,29.92,10.0,SSE,4.6,-,N/A,,Clear,160,2012-10-08 10:15:00
5:35 AM,32.0,21.2,64,29.92,10.0,SSE,3.5,-,N/A,,Clear,160,2012-10-08 10:35:00
5:55 AM,32.0,21.2,64,29.91,10.0,Calm,Calm,-,N/A,,Clear,0,2012-10-08 10:55:00
6:15 AM,32.0,21.2,64,29.91,10.0,Calm,Calm,-,N/A,,Clear,0,2012-10-08 11:15:00
6:35 AM,32.0,21.2,64,29.91,10.0,SSE,3.5,-,N/A,,Clear,150,2012-10-08 11:35:00
6:55 AM,32.0,23.0,69,29.91,10.0,Calm,Calm,-,N/A,,Clear,0,2012-10-08 11:55:00
7:15 AM,32.0,23.0,69,29.90,10.0,SSE,4.6,-,N/A,,Clear,150,2012-10-08 12:15:00
7:35 AM,32.0,23.0,69,29.90,10.0,Calm,Calm,-,N/A,,Clear,0,2012-10-08 12:35:00
7:55 AM,30.2,23.0,75,29.90,10.0,Calm,Calm,-,N/A,,Clear,0,2012-10-08 12:55:00
8:15 AM,33.8,26.6,75,29.90,10.0,South,3.5,-,N/A,,Clear,170,2012-10-08 13:15:00
8:35 AM,41.0,26.6,57,29.89,10.0,South,6.9,-,N/A,,Clear,180,2012-10-08 13:35:00
8:55 AM,42.8,28.4,57,29.89,10.0,South,9.2,-,N/A,,Clear,190,2012-10-08 13:55:00
9:15 AM,44.6,28.4,53,29.89,10.0,SSW,5.8,-,N/A,,Clear,200,2012-10-08 14:15:00
9:35 AM,46.4,28.4,50,29.88,10.0,SSW,11.5,17.3,N/A,,Clear,200,2012-10-08 14:35:00
9:55 AM,46.4,30.2,53,29.87,10.0,SSW,5.8,-,N/A,,Clear,200,2012-10-08 14:55:00
10:15 AM,50.0,30.2,47,29.86,10.0,SSW,8.1,16.1,N/A,,Mostly Cloudy,200,2012-10-08 15:15:00
10:35 AM,48.2,30.2,50,29.87,10.0,SW,8.1,19.6,N/A,,Overcast,220,2012-10-08 15:35:00
10:55 AM,48.2,30.2,50,29.87,10.0,SW,8.1,21.9,N/A,,Overcast,220,2012-10-08 15:55:00
11:15 AM,50.0,30.2,47,29.87,10.0,SW,5.8,-,N/A,,Overcast,220,2012-10-08 16:15:00
11:35 AM,51.8,30.2,44,29.86,10.0,SW,10.4,16.1,N/A,,Overcast,230,2012-10-08 16:35:00
11:55 AM,51.8,30.2,44,29.85,10.0,SSW,10.4,17.3,N/A,,Mostly Cloudy,210,2012-10-08 16:55:00
12:15 PM,51.8,30.2,44,29.84,10.0,SSW,8.1,18.4,N/A,,Mostly Cloudy,200,2012-10-08 17:15:00
12:55 PM,53.6,30.2,41,29.81,10.0,South,8.1,16.1,N/A,,Overcast,190,2012-10-08 17:55:00
1:15 PM,55.4,32.0,41,29.80,10.0,SSW,13.8,19.6,N/A,,Mostly Cloudy,210,2012-10-08 18:15:00
1:35 PM,59.0,32.0,36,29.78,10.0,South,12.7,21.9,N/A,,Overcast,190,2012-10-08 18:35:00
1:55 PM,57.2,32.0,38,29.78,10.0,South,9.2,21.9,N/A,,Overcast,190,2012-10-08 18:55:00
2:15 PM,59.0,32.0,36,29.76,10.0,SSW,13.8,21.9,N/A,,Overcast,200,2012-10-08 19:15:00
2:35 PM,59.0,32.0,36,29.76,10.0,SSW,10.4,17.3,N/A,,Overcast,200,2012-10-08 19:35:00
2:55 PM,60.8,32.0,34,29.75,10.0,SSW,8.1,19.6,N/A,,Overcast,210,2012-10-08 19:55:00
3:15 PM,62.6,30.2,30,29.74,10.0,SSW,17.3,24.2,N/A,,Overcast,200,2012-10-08 20:15:00
3:35 PM,62.6,30.2,30,29.73,10.0,SSW,13.8,27.6,N/A,,Overcast,210,2012-10-08 20:35:00
3:55 PM,62.6,30.2,30,29.72,10.0,SSW,13.8,21.9,N/A,,Mostly Cloudy,210,2012-10-08 20:55:00
4:15 PM,62.6,28.4,27,29.72,10.0,SSW,16.1,21.9,N/A,,Scattered Clouds,210,2012-10-08 21:15:00
4:35 PM,62.6,28.4,27,29.71,10.0,SSW,12.7,27.6,N/A,,Scattered Clouds,200,2012-10-08 21:35:00
4:55 PM,62.6,28.4,27,29.70,10.0,South,13.8,21.9,N/A,,Scattered Clouds,190,2012-10-08 21:55:00
5:15 PM,62.6,30.2,30,29.71,10.0,SSW,11.5,23.0,N/A,,Mostly Cloudy,210,2012-10-08 22:15:00
5:35 PM,62.6,30.2,30,29.72,10.0,SSW,12.7,20.7,N/A,,Overcast,210,2012-10-08 22:35:00
5:55 PM,60.8,30.2,31,29.71,10.0,SSW,13.8,27.6,N/A,,Overcast,210,2012-10-08 22:55:00
6:15 PM,60.8,30.2,31,29.70,10.0,South,12.7,21.9,N/A,,Mostly Cloudy,190,2012-10-08 23:15:00
6:55 PM,60.8,30.2,31,29.70,10.0,SSW,10.4,23.0,N/A,,Overcast,200,2012-10-08 23:55:00
7:35 PM,60.8,30.2,31,29.71,10.0,SSW,11.5,17.3,N/A,,Mostly Cloudy,200,2012-10-09 00:35:00
7:55 PM,60.8,32.0,34,29.71,10.0,SSW,13.8,18.4,N/A,,Scattered Clouds,200,2012-10-09 00:55:00
8:15 PM,60.8,32.0,34,29.72,10.0,SSW,11.5,25.3,N/A,,Mostly Cloudy,210,2012-10-09 01:15:00
8:35 PM,60.8,32.0,34,29.72,10.0,SSW,15.0,21.9,N/A,,Overcast,210,2012-10-09 01:35:00
8:55 PM,60.8,32.0,34,29.72,10.0,SSW,13.8,20.7,N/A,,Overcast,200,2012-10-09 01:55:00
9:15 PM,60.8,32.0,34,29.72,10.0,SSW,18.4,27.6,N/A,,Overcast,210,2012-10-09 02:15:00
9:35 PM,60.8,32.0,34,29.72,10.0,SW,12.7,23.0,N/A,,Overcast,220,2012-10-09 02:35:00
9:55 PM,60.8,32.0,34,29.73,10.0,SW,16.1,21.9,N/A,,Overcast,220,2012-10-09 02:55:00
10:15 PM,59.0,32.0,36,29.73,10.0,SSW,12.7,20.7,N/A,,Overcast,210,2012-10-09 03:15:00
10:55 PM,59.0,32.0,36,29.74,10.0,SW,10.4,19.6,N/A,,Overcast,220,2012-10-09 03:55:00
11:35 PM,59.0,32.0,36,29.74,10.0,SW,10.4,18.4,N/A,,Overcast,220,2012-10-09 04:35:00
11:55 PM,59.0,32.0,36,29.74,10.0,SW,10.4,18.4,N/A,,Overcast,220,2012-10-09 04:55:00